Powrót do katalogu

OSCAR 23

AktywnyKrótkofalarstwoPO
NORAD 19070·PAYLOAD·🇺🇸 United States

Wystrzelony Apr 26, 1988 z Vandenberg Space Force Base

Loading…

Następne Przeloty (najbliższe 24 godziny)

TLE

ŚwieżeSource: Space-Track

Epoka: Sep 14, 2026, 15:11 UTC

1 19070U 88033A   26257.63276385  .00000041  00000-0  62573-4 0  9993
2 19070  90.3357  25.1331 0190878 132.7758 308.8385 13.27827985859141

Śledź OSCAR 23 w czasie rzeczywistym z AllMySat

Download on the App Store